Hourly Data Report for November 17, 2019

MIRAMICHI RCS
NEW BRUNSWICK
Current Station Operator: ECCC - MSC

47°00'34.000" N
65°27'54.000" W
33.00 m
8100989
71744
ACQ

Download Data

Hourly Data (November 2019)
Hourly Data Report for November 17, 2019
TIME
LST
Temp Definition
°C
Dew Point Definition
°C
Rel Hum Definition
%
Precip. Amount Definition
mm

Wind Dir Definition
10's deg

Wind Spd Definition
km/h
Visibility Definition
km
Stn Press Definition
kPa
Hmdx Definition


Wind Chill Definition


Weather Definition


00:00 -7.8 -12.4 69 0.0 28 13   102.47   -14 LegendNANA
01:00 -8.7 -12.6 73 0.0 25 10   102.53   -14 LegendNANA
02:00 -8.7 -12.5 74 0.0 27 16   102.57   -15 LegendNANA
03:00 -8.6 -12.3 75 0.0 28 11   102.58   -14 LegendNANA
04:00 -9.7 -12.8 78 0.0 27 9   102.61   -15 LegendNANA
05:00 -9.9 -12.9 78 0.0 28 9   102.64   -15 LegendNANA
06:00 -10.3 -13.1 80 0.0 28 10   102.70   -16 LegendNANA
07:00 -10.2 -12.7 82 0.0 31 7   102.71   -14 LegendNANA
08:00 -9.9 -13.0 79 0.0 28 5   102.71   -13 LegendNANA
09:00 -8.3 -12.2 74 0.0 26 8   102.81   -12 LegendNANA
10:00 -6.1 -11.9 64 0.0 26 10   102.83   -11 LegendNANA
11:00 -4.5 -11.3 59 0.0 31 8   102.82   -8 LegendNANA
12:00 -2.5 -10.3 55 0.0 23 7   102.73   -5 LegendNANA
13:00 -1.4 -10.7 49 0.0 21 7   102.67   -4 LegendNANA
14:00 0.0 -11.6 41 0.0 22 5   102.59   -2 LegendNANA
15:00 0.2 -12.8 37 0.0 25 7   102.57     LegendNANA
16:00 -0.3 -12.0 41 0.0 22 5   102.50   -2 LegendNANA
17:00 -3.3 -11.2 54 0.0 21 6   102.52   -6 LegendNANA
18:00 -5.7 -11.7 62 0.0 18 8   102.52   -9 LegendNANA
19:00 -5.0 -9.9 69 0.0 22 1   102.47   -5 LegendNANA
20:00 -6.5 -10.3 75 0.0   0   102.43     LegendNANA
21:00 -5.3 -10.8 65 0.0 23 3   102.39   -7 LegendNANA
22:00 -5.0 -10.4 66 0.0 27 2   102.38   -6 LegendNANA
23:00 -9.0 -11.4 82 0.0 23 4   102.31   -11 LegendNANA

Notes on Data Quality.

Legend

  • E = Estimated
  • M = Missing
  • NA = Not Available*
  • [empty] = Indicates an unobserved value
Date modified: